ATLAS 5 CENTAUR DEB, 49048

Orbit data source: Space-Track

ATLAS 5 CENTAUR DEB, 49048 is space debris in HEO originally from a launch on Wed, 17 Sep 2014 UTC launched from the Air Force Eastern Test Range (AFETR). Debris objects in space refer to the collection of defunct objects orbiting the Earth. Examples of debris include non-operational satellites, rocket bodies, and fragments generated from explosions, collisions, or faulty payload assembly.

Loading next visibility...
Identifier
49048, 2014-055DG
Orbit
HEO
Country
Flag of USUS
Related business
Flag of USUnited Launch Alliance/Lockheed Martin (US)
Manufacturer
Unknown
Mission
Spacecraft
Bus & Motor
Unknown
Mass
Unknown
Launch date (UTC)
2014-09-17 (12 years ago)
Launch vehicle
Unknown
Launch site
Air Force Eastern Test Range (AFETR)
Object type
Payload
Rocket body
Debris
Shape & HBR
Unknown shape, 1.1 m
Radar Cross Section
Medium (>0.1 m² and <1 m²)

Expand to show TLE details & history
Last TLE update: 3 months ago

TLE from 3 months ago
0 ATLAS 5 CENTAUR DEB
1 49048U 14055DG  26174.04578493 -.00000054  00000-0  00000-0 0  9990
2 49048  20.8063 113.8467 4796359 222.3714  88.5003  1.93391183 47160
Epoch: 2026-06-23T01:05Z
TLE epoch observation values (Epoch: 2026-06-23T01:05:55.817Z)
Latitude
Longitude
-173.91415°
Altitude
26,087.931 km
Speed
3.148 km/s
True Right ascension
07h 35m 09s
True Declination
0° 00' 00"
Sunlit
Object was in daylight at epoch
Visualization orbit readout
Latitude
Unknown
Longitude
Unknown
Altitude
Unknown
Speed
Unknown
Apparent Right ascension
Unknown
Apparent Declination
Unknown
Sunlit
N/A
Visualization observer readout
Local Sidereal Time
00:57:02
Azimuth
Unknown
Elevation
Unknown
Doppler factor
Unknown
Orbital elements
Apogee altitude
33,890.183 km
Perigee altitude
7,783.582 km
Semi-major axis
27,215.02 km
Eccentricity
0.47964
Inclination
20.8063°
RAAN
113.8467°
Arg. of periapsis
222.3714°
True anomaly
137.63198°
Mean anomaly
88.5003°
Eccentric anomaly
113.66959°
Mean motion
0.48343 °/min
Orbital period
744.68 mins
BSTAR
0
Loading maneuver chart data...
Computing Atmospheric mass density...

Documentation

Showing up to 5 results
|